Tracking 26218 objects as of 27-Sep-2022
HD Live streaming from Space Station
objects crossing your sky now

STARLINK-4680

Track STARLINK-4680 now!
10-day predictions
STARLINK-4680 is classified as:


NORAD ID: 53749
Int'l Code: 2022-107BB
Perigee: 370.1 km
Apogee: 371.7 km
Inclination: 53.2 °
Period: 91.8 minutes
Semi major axis: 6741 km
RCS: Unknown
Launch date: September 5, 2022
Source: United States (US)
Launch site: AIR FORCE EASTERN TEST RANGE (AFETR)
aabbcc
Your satellite tracking list
Your tracking list is empty




NASA's NSSDC Master Catalog

Two Line Element Set (TLE):
1 53749U 22107BB  22270.25001157 -.01229740  00000-0 -11971-1 0  9991
2 53749  53.2167 163.5533 0001173 116.0552 168.3673 15.68291866  3595
Source of the keplerian elements: AFSPC